{"data":{"norad_id":59187,"epoch":"2026-09-19T21:48:23.715648Z","epoch_age_seconds":209888,"freshness":"STALE","line1":"1 59187U 24045K   26262.90860782  .00003713  00000+0  14429-3 0  9999","line2":"2 59187  42.9986  75.7861 0001376 273.0974  86.9720 15.27597280142862","mean_motion":15.2759728,"eccentricity":0.0001376,"inclination_deg":42.9986,"raan_deg":75.7861,"arg_perigee_deg":273.0974,"mean_anomaly_deg":86.972,"bstar":0.00014429,"rev_number":14286,"period_min":94.265682379324,"perigee_km":482.05326190385,"apogee_km":483.94144607807,"semimajor_km":6861.134353991,"source":"CELESTRAK","updated_at":"2026-09-21T09:00:34.063462Z"}}